Torna al catalogo

RS-22

MOZHAYETS 4

AttivoRadioamatoreSSO
NORAD 27939·PAYLOAD·🇷🇺 Russia

Lanciato Sep 27, 2003 da Plesetsk Cosmodrome

Loading…

Prossimi Passaggi (prossime 24 ore)

TLE

AggiornatoSource: Space-Track

Epoca: Sep 14, 2026, 15:25 UTC

1 27939U 03042A   26257.64303377  .00000751  00000-0  12362-3 0  9994
2 27939  98.3474  84.5548 0011175 351.6964  73.0743 14.73599550228723

Traccia RS-22 in tempo reale con AllMySat

Download on the App Store